[[{"header":{"parameterUnit":"m.s-1","parameterCategory":1,"la1":30.2991,"la2":30.254,"lo1":-89.0895,"lo2":-89.0444,"dy":0.0017,"dx":0.0017,"nx":28,"ny":28,"refTime":"2023-08-05T03:00:00:Z","depth":0,"parameterNumber":2,"parameterNumberName":"U-component_of_WINDS"},"data":[0,0,0,0,0,0,0,0,0,0,0,0,0,0,0,0,0,0,0,0,0,0,0,0,0,0,0,0,0,0,0,0,0,0,0,0,0,0,0,0,0,0,0,0,0,0,0,0,0,0,0,0,0,0,0,0,0,0,4.5643,4.5644,0,4.5701,4.5702,4.5702,4.5642,4.5639,4.5637,4.5635,4.5697,4.5701,4.5705,0,0,0,0,0,0,0,0,0,0,0,0,0,4.5483,4.5486,4.5643,4.5644,4.5644,4.5701,4.5702,4.5703,4.5642,4.5639,4.5636,4.5634,4.5696,4.57,4.5705,0,0,0,0,0,0,0,0,0,0,0,0,0,4.5548,4.5487,4.5643,4.5621,4.5619,4.5701,4.5702,4.5703,4.5643,4.5639,4.5635,4.5632,4.5694,4.57,4.5706,4.5812,0,0,4.5723,4.5726,0,0,0,0,0,0,0,0,4.5544,4.5554,4.5623,4.5623,4.5621,4.566,4.5668,4.574,4.5643,4.5634,4.5635,4.563,4.5688,4.5694,4.5713,4.5815,4.5818,4.5724,4.5727,4.573,4.5732,0,0,0,0,0,0,0,4.554,4.5551,4.5666,4.5624,4.5623,4.5609,4.5615,4.5681,4.568,4.5634,4.563,4.5638,4.5687,4.5707,4.5714,4.5819,4.5724,4.5729,4.5732,4.5735,4.6014,4.6017,0,0,0,0,0,0,4.5537,4.5548,4.5664,4.5668,4.5573,4.5615,4.5621,4.5651,4.5679,4.568,4.5641,4.5635,4.5699,4.5707,4.5716,4.5844,4.573,4.5735,4.5739,4.601,4.6015,4.6019,0,0,0,0,0,0,4.5534,4.5548,4.5662,4.5607,4.562,4.5621,4.5656,4.5654,4.5675,4.5684,4.5684,4.5662,4.5697,4.5708,4.5789,4.5845,4.5738,4.5743,4.6005,4.6011,4.6017,4.61,0,0,0,0,0,0,4.553,4.5547,4.5587,4.5608,4.5623,4.5733,4.566,4.5658,4.5685,4.5678,4.5704,4.5705,4.5695,4.5781,4.5795,4.5851,4.5748,4.6,4.6008,4.6015,4.6092,4.6108,4.6121,0,0,0,0,0,4.5524,4.5608,4.5589,4.5604,4.5673,4.5737,4.5745,4.5731,4.569,4.573,4.5736,4.5704,4.5836,4.579,4.5805,4.5864,4.5997,4.6006,4.6014,4.6086,4.6105,4.6121,0,0,0,0,0,0,4.5595,4.5611,4.559,4.5683,4.5709,4.5726,4.5777,4.5752,4.5791,4.5782,4.5764,4.5771,4.5857,4.5868,4.5816,4.5969,4.591,4.5922,4.5959,4.5977,4.5992,4.5987,4.5752,0,0,0,0,0,4.5621,4.5671,4.5682,4.5764,4.5778,4.5775,4.5803,4.579,4.5816,4.5827,4.5838,4.5866,4.5914,4.5946,4.5991,4.6093,4.6099,4.6142,4.6156,4.6168,4.6179,4.6236,4.6255,4.6048,4.6048,4.6048,0,0,4.5676,4.5691,4.5724,4.5778,4.5797,4.585,4.5785,4.5843,4.5883,4.5836,4.5913,4.5923,4.5953,4.6046,4.6088,4.6058,4.6238,4.6179,4.6189,4.6194,4.6247,4.6267,4.6284,4.6054,4.6053,4.6052,0,0,4.5804,4.582,4.589,4.591,4.5938,4.5936,4.5953,4.5975,4.5979,4.6057,4.6023,4.607,4.6153,4.6176,4.6198,4.6336,4.6309,4.6352,4.6428,4.6484,4.65,4.6514,4.6565,4.6583,4.6362,4.6363,4.6363,0,4.587,4.5947,4.5929,4.5991,4.6017,4.5976,4.6047,4.6068,4.611,4.6129,4.6095,4.6199,4.6216,4.6315,4.6348,4.6368,4.6388,4.6349,4.6499,4.6513,4.6526,4.6574,4.6593,4.6368,4.6367,4.6367,4.6366,0,4.6027,4.6081,4.6135,4.6176,4.6208,4.6274,4.6267,4.6302,4.6286,4.6289,4.6369,4.6388,4.6436,4.6458,4.6444,4.6556,4.6537,4.6501,4.6441,4.6552,4.6596,4.6615,4.6375,4.6373,4.6372,4.637,0,0,4.6201,4.6232,4.6252,4.6271,4.63,4.6342,4.6407,4.6454,4.6484,4.6515,4.657,4.6642,4.6609,4.6635,4.6623,4.6672,4.6781,4.663,4.6631,4.6659,4.6907,4.6934,4.6956,4.6763,4.6766,4.6769,4.6905,0,4.633,4.6442,4.6429,4.6537,4.6588,4.655,4.6607,4.6632,4.6636,4.6681,4.6685,4.6736,4.6689,4.6705,4.6751,4.6758,4.6831,4.6748,4.6815,4.6818,4.681,4.6979,4.7007,4.7135,4.6922,4.6925,4.6927,0,4.6496,4.6533,4.6645,4.6668,4.6689,4.674,4.6782,4.6825,4.6853,4.6852,4.6882,4.6861,4.6928,4.6867,4.6959,4.6903,4.693,4.6938,4.6942,4.6949,4.688,4.6991,4.7175,4.7194,4.6954,4.6952,4.695,0,4.6614,4.6691,4.6768,4.6786,4.6813,4.685,4.6864,4.6888,4.6917,4.6955,4.6974,4.7019,4.7044,4.708,4.7073,4.7028,4.7168,4.7105,4.7171,4.7171,4.7202,4.7201,4.7394,4.7218,4.7218,4.7218,4.7217,0,4.676,4.6831,4.6822,4.687,4.6948,4.6933,4.7011,4.702,4.7042,4.7092,4.7063,4.7111,4.7098,4.7146,4.7141,4.7219,4.723,4.7233,4.7231,4.7236,4.7236,4.7254,4.7245,4.7223,4.7221,4.722,4.722,0,4.6905,4.6901,4.6984,4.7003,4.701,4.7067,4.7084,4.713,4.7132,4.7195,4.721,4.7213,4.7267,4.7264,4.7326,4.7322,4.7419,4.7406,4.741,4.7407,4.7474,4.7468,4.7686,4.7715,4.7519,4.7521,4.7523,0,4.6999,4.7053,4.7078,4.7109,4.7125,4.7175,4.7205,4.7192,4.7224,4.7261,4.7303,4.7354,4.7395,4.7485,4.7493,4.7541,4.753,4.7603,4.7537,4.7541,4.7532,4.7529,4.7535,4.7616,4.7618,4.762,4.7622,0,4.7167,4.7163,4.7206,4.725,4.7286,4.732,4.7351,4.7378,4.7369,4.7407,4.7462,4.7494,4.7557,4.7609,4.7655,4.767,4.7645,4.7642,4.766,4.7666,4.7667,4.7669,4.7446,4.7638,4.7636,4.7635,4.7634,4.7633,4.729,4.7337,4.7362,4.7412,4.7434,4.7463,4.7508,4.7515,4.756,4.761,4.76,4.7663,4.769,4.7749,4.7768,4.7818,4.7792,4.7817,4.7824,4.7831,4.7839,4.7658,4.7826,4.7825,4.7825,4.7825,4.7824,0,4.7458,4.7473,4.7519,4.7562,4.7602,4.7574,4.7607,4.7642,4.7698,4.7725,4.7766,4.783,4.7881,4.7894,4.7943,4.798,4.797,4.7994,4.7991,4.7996,4.7859,4.7839,4.8001,4.8001,4.8001,4.8001,4.8001,4.8001,4.755,4.7627,4.7626,4.7715,4.7729,4.7789,4.7811,4.7838,4.786,4.7933,4.7975,4.7983,4.8005,4.8055,4.8101,4.8104,4.8124,4.8152,4.815,4.8023,4.8005,4.7988,4.7969,4.8156,4.8157,4.8283,4.8284,4.8285]},{"header":{"parameterUnit":"m.s-1","parameterCategory":1,"la1":30.2991,"la2":30.254,"lo1":-89.0895,"lo2":-89.0444,"dy":0.0017,"dx":0.0017,"nx":28,"ny":28,"refTime":"2023-08-05T03:00:00:Z","depth":0,"parameterNumber":3,"parameterNumberName":"V-component_of_WINDS"},"data":[0,0,0,0,0,0,0,0,0,0,0,0,0,0,0,0,0,0,0,0,0,0,0,0,0,0,0,0,0,0,0,0,0,0,0,0,0,0,0,0,0,0,0,0,0,0,0,0,0,0,0,0,0,0,0,0,0,0,0.8605,0.8605,0,0.8605,0.8605,0.8605,0.8592,0.8592,0.8592,0.8591,0.8591,0.8592,0.8592,0,0,0,0,0,0,0,0,0,0,0,0,0,0.8592,0.8592,0.8605,0.8605,0.8605,0.8605,0.8605,0.8605,0.8592,0.8592,0.8592,0.8591,0.8591,0.8592,0.8592,0,0,0,0,0,0,0,0,0,0,0,0,0,0.8595,0.8592,0.8605,0.8599,0.8598,0.8605,0.8605,0.8605,0.8593,0.8592,0.8592,0.8591,0.8591,0.8592,0.8592,0.8606,0,0,0.8594,0.8594,0,0,0,0,0,0,0,0,0.8595,0.8596,0.86,0.8599,0.8598,0.8598,0.8601,0.8605,0.8593,0.8595,0.8591,0.8591,0.8594,0.8594,0.8596,0.8606,0.8606,0.8594,0.8594,0.8594,0.8594,0,0,0,0,0,0,0,0.8595,0.8596,0.8605,0.86,0.8599,0.8595,0.8595,0.8602,0.8597,0.8594,0.8593,0.8594,0.8594,0.8595,0.8595,0.8606,0.8594,0.8594,0.8594,0.8595,0.8625,0.8625,0,0,0,0,0,0,0.8596,0.8596,0.8605,0.8605,0.8596,0.8596,0.8596,0.8599,0.8597,0.8596,0.8594,0.8593,0.8595,0.8595,0.8595,0.861,0.8594,0.8595,0.8595,0.8624,0.8625,0.8626,0,0,0,0,0,0,0.8596,0.8597,0.8605,0.86,0.8601,0.8597,0.86,0.8599,0.8601,0.8597,0.8596,0.8596,0.8594,0.8595,0.8603,0.861,0.8595,0.8595,0.8624,0.8625,0.8625,0.864,0,0,0,0,0,0,0.8595,0.8597,0.8602,0.86,0.8601,0.8613,0.8601,0.86,0.8601,0.86,0.8599,0.8598,0.8594,0.8602,0.8603,0.861,0.8596,0.8623,0.8624,0.8625,0.8639,0.8641,0.8643,0,0,0,0,0,0.8595,0.8606,0.8603,0.8604,0.8608,0.8613,0.8614,0.8609,0.8602,0.8607,0.8605,0.8598,0.8609,0.8603,0.8604,0.8611,0.8623,0.8624,0.8625,0.8638,0.8641,0.8643,0,0,0,0,0,0,0.8609,0.8606,0.8602,0.8613,0.8614,0.8611,0.8618,0.8612,0.8614,0.8613,0.8606,0.8606,0.8615,0.8614,0.8608,0.8623,0.8615,0.8616,0.8624,0.8626,0.8629,0.8628,0.8596,0,0,0,0,0,0.8614,0.8619,0.8616,0.8626,0.8627,0.8622,0.8624,0.862,0.862,0.862,0.8618,0.8619,0.8622,0.8624,0.8627,0.8638,0.8637,0.8644,0.8646,0.8648,0.8649,0.8654,0.8656,0.8629,0.8629,0.8629,0,0,0.8623,0.8622,0.8626,0.8629,0.8629,0.8633,0.8622,0.8628,0.8631,0.8621,0.8628,0.8627,0.8627,0.8636,0.864,0.8636,0.8656,0.8649,0.8651,0.8651,0.8655,0.8658,0.866,0.863,0.863,0.863,0,0,0.8643,0.8643,0.8651,0.8651,0.8651,0.8647,0.8649,0.8647,0.8646,0.8653,0.8645,0.8649,0.8655,0.8655,0.8655,0.8673,0.8667,0.8674,0.8685,0.869,0.8692,0.8694,0.87,0.8702,0.8676,0.8676,0.8676,0,0.8655,0.8662,0.8656,0.8662,0.8663,0.8654,0.8661,0.8662,0.8662,0.8663,0.8658,0.8664,0.8664,0.8672,0.8677,0.8678,0.8679,0.8674,0.8693,0.8694,0.8696,0.8701,0.8703,0.8677,0.8676,0.8676,0.8676,0,0.8676,0.8681,0.8687,0.8688,0.869,0.8697,0.8691,0.8694,0.8689,0.8686,0.8693,0.8691,0.8693,0.8695,0.8691,0.8703,0.87,0.8694,0.8685,0.8699,0.8704,0.8706,0.8678,0.8677,0.8677,0.8677,0,0,0.8705,0.8702,0.8704,0.8704,0.8702,0.8706,0.8711,0.8713,0.8715,0.8716,0.872,0.8725,0.8718,0.8719,0.8715,0.8719,0.8732,0.8712,0.8712,0.8715,0.8744,0.8748,0.8751,0.8728,0.8728,0.8729,0.8744,0,0.8723,0.8734,0.8728,0.8739,0.8742,0.8733,0.8738,0.8737,0.8734,0.8737,0.8734,0.8737,0.8729,0.8729,0.8733,0.873,0.8738,0.8729,0.8731,0.8731,0.8731,0.8753,0.8758,0.8772,0.8746,0.8746,0.8746,0,0.8746,0.8747,0.8758,0.8755,0.8756,0.8761,0.8761,0.8764,0.8763,0.876,0.876,0.8754,0.8759,0.875,0.8756,0.875,0.8751,0.8749,0.875,0.8749,0.8739,0.8753,0.8777,0.8779,0.8749,0.8749,0.8749,0,0.8766,0.877,0.8776,0.8776,0.8773,0.8776,0.8775,0.8773,0.8774,0.8774,0.8774,0.8775,0.8776,0.8776,0.877,0.8765,0.8777,0.8768,0.8774,0.8774,0.8777,0.8777,0.8801,0.8779,0.8778,0.8778,0.8778,0,0.8786,0.8793,0.8785,0.8789,0.8796,0.8789,0.8796,0.8794,0.8792,0.8795,0.8787,0.879,0.8782,0.8784,0.878,0.8785,0.8785,0.8783,0.8781,0.8783,0.8783,0.8783,0.8782,0.8779,0.8779,0.8779,0.8779,0,0.8809,0.8804,0.881,0.8806,0.8805,0.881,0.8807,0.881,0.8806,0.881,0.881,0.8805,0.8806,0.88,0.8801,0.8798,0.8805,0.8803,0.8806,0.8805,0.8812,0.8811,0.8836,0.8839,0.8815,0.8815,0.8815,0,0.8822,0.8827,0.8823,0.8825,0.8824,0.8826,0.8827,0.882,0.8821,0.8819,0.8822,0.8823,0.8824,0.8827,0.8822,0.8823,0.8819,0.8828,0.8819,0.8821,0.8818,0.8818,0.8818,0.883,0.883,0.883,0.8831,0,0.8846,0.8843,0.8844,0.8845,0.8846,0.8846,0.8845,0.8846,0.8839,0.884,0.8842,0.8842,0.8843,0.8843,0.8843,0.8841,0.8834,0.8833,0.8835,0.8836,0.8838,0.8836,0.881,0.8833,0.8833,0.8832,0.8832,0.8832,0.8864,0.8867,0.8865,0.8866,0.8865,0.8864,0.8867,0.8863,0.8864,0.8864,0.886,0.8862,0.8859,0.8858,0.8856,0.8857,0.8853,0.8855,0.8856,0.8856,0.8857,0.8838,0.8857,0.8857,0.8857,0.8857,0.8857,0,0.8887,0.8884,0.8886,0.8885,0.8886,0.888,0.8878,0.8879,0.8881,0.8879,0.888,0.8881,0.8881,0.8877,0.8876,0.8878,0.8875,0.8878,0.8878,0.8877,0.8861,0.886,0.888,0.888,0.888,0.888,0.888,0.888,0.8899,0.8904,0.89,0.8904,0.8902,0.8904,0.8904,0.8902,0.8901,0.8902,0.8903,0.89,0.8896,0.8895,0.8895,0.8894,0.8894,0.8898,0.8895,0.8881,0.8878,0.8876,0.8875,0.8898,0.8898,0.8911,0.8911,0.8911]}]]